User: anonymous   Login
Location: Unspecified
(0.0000°N, 0.0000°E)
Time: 21:53:50
(UTC+00:00)
Language:

STARLINK-31181 - Orbit

View from above orbital plane
View from above orbital plane
View from above satellite
View from above satellite

Ground track
Ground track

The orbit is defined by the following mean orbital elements,

1 58746U          26145.26755288 +.00000000 +00000-0 +73361-4 0 00008
2 58746  43.0004 355.0504 0000653 306.7410  53.3382 15.27578450    08
Epoch (UTC): 25 May 2026 06:25:16
Eccentricity: 0.0000653
inclination: 43.0004°
perigee height: 483 km
apogee height: 484 km
right ascension of ascending node: 355.0504°
argument of perigee: 306.7410°
revolutions per day: 15.27578450
mean anomaly at epoch: 53.3382°

The dashed part of the orbit path shows where the satellite is in the earth's shadow,  

DLR